Temperature
8 8 8 8 9 9 9 9 9 10 10 10 10 10 10 10 10 10 10 10 11 10 10 10 10 10 10 10 10 10 10 10 10 9 9 9 9 9 9 9 9 9 9
8 7 8 8 8 9 9 9 9 9 9 9 10 10 10 10 10 10 10 10 10 10 10 10 10 10 10 10 9 9 9 9 9 9 8 8 8 9 9 9 9 9 9
7 7 7 7 8 8 8 9 9 9 9 9 9 9 9 9 9 9 9 10 10 10 10 9 9 9 10 9 9 9 9 9 9 9 8 8 9 8 8 9 9 9 8
7 6 6 7 7 7 8 8 8 8 8 8 8 8 8 8 9 9 9 9 9 9 9 9 9 9 9 9 9 9 9 9 9 8 8 8 9 8 8 8 8 8 8
6 6 6 6 6 7 7 7 7 8 8 8 8 8 8 8 8 8 8 8 9 9 9 9 9 9 9 9 9 8 8 8 8 8 8 8 8 8 8 7 8 8 8
5 6 6 6 6 6 7 7 7 7 7 7 7 7 7 7 7 7 7 8 8 8 8 8 8 8 8 8 8 8 8 8 8 8 8 7 7 7 7 7 7 7 7
5 5 5 6 6 6 6 6 6 6 6 7 7 6 6 7 7 7 7 7 7 7 8 7 7 7 7 7 8 8 8 8 8 7 7 7 7 7 7 7 7 6 6
5 5 5 5 5 5 6 6 6 6 6 6 6 6 6 6 6 6 6 6 6 6 7 7 7 7 7 7 7 7 7 7 7 7 7 7 7 7 7 7 6 6 6
4 4 4 5 5 5 5 5 5 5 5 5 5 5 5 5 5 6 5 6 6 6 6 6 6 6 6 6 6 7 7 7 7 7 7 7 7 7 6 6 6 6 5
4 4 4 4 4 4 4 5 4 4 5 5 5 5 5 5 5 5 5 5 5 5 5 5 6 6 6 6 6 6 6 6 6 7 6 6 6 6 6 6 6 6 5
3 3 4 4 4 4 4 4 4 4 4 4 4 4 4 4 4 4 4 4 5 5 5 5 5 5 5 6 6 6 6 6 6 6 6 6 6 6 6 6 5 5 5
3 3 3 3 3 3 3 3 3 3 3 3 3 3 3 3 3 3 4 4 4 4 4 5 5 5 5 5 5 5 5 5 5 5 5 6 6 5 5 5 5 5 5
2 2 2 2 3 3 3 3 2 2 2 3 3 3 3 3 3 3 3 3 4 4 4 4 4 5 5 5 5 5 5 5 5 5 5 5 5 5 5 5 5 4 4
2 2 2 2 2 2 2 2 2 2 2 2 2 2 2 2 2 2 3 3 3 3 3 4 4 4 4 4 4 4 4 4 5 5 5 5 5 5 5 4 4 4 4
1 1 1 1 1 1 1 1 1 1 2 2 1 1 1 1 2 2 2 2 3 3 3 3 3 4 4 4 4 4 4 4 4 4 4 4 4 4 4 4 4 4 3
1 1 1 1 1 1 1 1 1 1 1 1 1 1 1 1 1 1 2 2 2 2 3 3 3 3 3 3 3 4 4 4 3 4 4 4 4 4 3 3 3 3 3
1 0 0 0 0 0 0 1 1 1 1 1 0 0 1 1 1 1 1 1 2 2 2 2 2 2 3 3 3 3 3 3 3 3 3 3 3 3 3 3 3 2 2
0 0 0 -0 0 -0 -0 0 0 1 0 0 0 0 0 0 1 1 1 1 1 1 1 2 2 2 2 2 3 3 3 3 3 3 3 3 2 2 2 2 2 2 2
-0 -0 -0 -0 -0 -0 -0 -0 -0 0 0 -0 -0 -0 0 0 0 0 0 0 1 1 1 1 1 2 2 2 2 2 2 2 2 2 2 2 2 2 2 1 1 1 1
-0 -1 -1 -1 -0 -0 -1 -1 -1 -1 -0 -0 -0 -0 -0 -0 -0 -0 -0 0 0 0 0 1 1 1 1 1 1 2 2 2 2 1 1 1 1 1 1 1 0 1 1
-1 -1 -1 -1 -1 -1 -1 -1 -1 -1 -1 -1 -1 -1 -1 -1 -1 -1 -0 -0 0 0 0 0 1 1 1 1 1 1 1 1 1 1 1 1 1 0 0 -0 -0 0 -0
-1 -1 -1 -1 -1 -1 -2 -1 -1 -1 -1 -1 -1 -1 -1 -1 -1 -1 -1 -1 -1 -0 -0 -0 -0 -0 0 0 0 1 0 0 0 0 0 0 0 -0 -0 -0 -1 -1 -1
-1 -2 -2 -2 -2 -2 -2 -2 -1 -2 -1 -1 -1 -1 -1 -1 -1 -1 -1 -1 -1 -1 -1 -1 -1 -1 -1 -0 -0 -0 -0 -0 -0 -0 -0 -0 -1 -1 -1 -1 -1 -1 -2
-2 -2 -2 -2 -2 -2 -2 -2 -2 -2 -2 -2 -2 -2 -2 -2 -2 -2 -2 -2 -2 -2 -2 -2 -1 -1 -1 -1 -1 -1 -1 -1 -1 -1 -1 -1 -1 -2 -2 -2 -2 -2 -2
-2 -2 -3 -3 -2 -2 -2 -2 -2 -2 -2 -2 -2 -2 -2 -2 -2 -2 -2 -2 -2 -2 -2 -2 -2 -2 -2 -2 -2 -2 -2 -2 -2 -2 -2 -2 -2 -3 -3 -3 -3 -3 -3
-2 -3 -3 -3 -3 -3 -3 -2 -2 -3 -3 -3 -3 -3 -3 -3 -3 -3 -2 -2 -2 -3 -3 -3 -3 -3 -2 -2 -2 -2 -2 -2 -2 -2 -3 -3 -3 -3 -3 -4 -4 -4 -4
Wind_Speed
3 2 1 1 0 0 1 1 1 1 1 1 1 2 2 2 2 2 3 4 4 5 5 4 5 5 6 6 6 5 5 5 4 3 3 3 4 4 4 4 4 4 5
3 2 1 0 0 0 1 1 1 2 2 2 2 2 3 3 3 2 3 4 4 5 5 5 5 6 6 7 7 6 4 4 5 4 3 3 4 4 5 5 5 5 5
4 3 2 1 0 1 2 2 2 2 2 1 1 0 1 1 2 3 3 4 4 5 5 6 6 6 7 7 7 8 7 6 6 5 4 4 4 3 4 6 6 6 5
3 3 2 1 1 1 2 2 2 2 1 1 1 2 2 3 4 4 4 4 5 5 5 6 7 7 7 8 8 8 7 7 7 6 6 5 3 3 3 4 5 6 6
3 3 3 2 1 2 2 2 2 1 1 1 2 3 3 4 4 4 5 4 4 5 5 5 6 7 7 8 9 9 9 8 8 7 5 6 4 5 4 4 4 5 5
2 2 2 1 1 2 2 2 2 2 2 2 2 3 4 4 5 5 5 5 4 5 5 5 6 6 7 8 8 9 11 9 9 8 7 6 5 6 6 6 5 5 4
3 2 2 1 2 3 2 2 3 3 2 3 3 4 5 5 6 6 6 6 5 5 6 6 6 6 7 7 8 8 10 11 10 10 8 8 8 6 6 7 6 5 4
3 3 3 2 3 3 4 3 3 3 3 4 4 5 4 4 5 6 6 6 6 6 6 7 7 7 7 7 7 8 9 9 10 10 9 7 8 7 7 6 5 5 5
2 3 3 3 3 3 4 4 4 4 4 5 5 5 5 5 6 6 6 6 6 6 7 7 7 8 8 8 8 7 8 8 9 9 9 8 7 6 6 6 6 6 6
2 3 4 4 3 3 4 4 4 5 5 5 5 5 5 6 6 6 7 7 7 6 7 7 7 7 7 7 7 6 7 8 8 8 10 9 7 6 6 6 6 6 7
4 4 4 4 4 3 3 3 4 5 5 6 6 6 6 6 6 6 7 7 7 7 7 7 8 8 8 8 8 8 8 9 9 8 9 10 9 7 6 6 6 6 6
5 5 5 4 4 3 3 4 5 5 6 6 6 6 6 6 6 7 7 7 7 7 8 8 8 8 8 9 9 9 9 9 9 9 9 10 8 9 7 6 7 6 6
5 5 4 4 4 4 4 4 5 5 6 6 6 6 6 6 7 7 6 6 7 7 8 8 8 9 9 9 9 9 9 9 9 9 10 9 9 10 8 8 7 6 5
5 5 5 5 5 5 5 5 6 6 6 5 5 6 6 6 7 7 7 6 7 7 7 8 8 8 9 9 8 8 8 8 7 8 8 9 9 9 9 8 7 6 5
6 6 6 6 6 6 6 6 6 7 6 6 6 6 7 7 6 6 6 6 6 7 7 7 7 7 7 7 8 7 7 7 7 7 7 7 7 8 8 7 7 6 5
6 7 7 7 7 7 7 7 7 7 6 6 7 7 6 6 6 6 6 6 6 6 6 6 6 6 6 7 7 6 6 6 6 6 6 6 6 6 8 8 8 7 7
7 7 7 7 7 7 7 8 8 7 6 6 6 7 6 6 6 6 6 6 6 6 5 5 5 6 6 6 4 4 4 5 6 6 5 4 5 5 6 7 7 8 8
7 7 7 7 7 7 7 8 8 7 6 6 6 6 6 6 6 6 6 5 5 5 5 5 5 5 4 4 3 3 4 4 5 5 5 5 5 5 4 5 5 5 5
6 6 7 7 7 7 7 7 7 7 6 6 6 6 6 6 6 6 5 5 5 5 5 4 4 4 3 2 2 2 3 3 3 3 4 4 4 5 5 4 4 4 2
5 5 6 6 7 7 7 7 7 6 7 7 6 6 6 6 6 6 5 4 4 4 4 4 3 3 3 2 1 1 2 2 2 2 2 4 4 4 5 4 4 4 3
5 5 5 6 6 7 6 7 7 7 7 6 6 6 6 6 5 5 4 4 3 3 3 2 2 2 2 1 1 1 1 2 2 2 2 2 4 4 5 3 3 3 3
5 5 5 6 6 6 6 7 7 7 6 6 6 6 5 5 4 4 3 2 1 1 2 2 1 1 1 1 1 0 1 1 1 2 1 2 4 4 4 3 4 5 4
5 5 5 6 6 6 6 7 8 7 6 5 5 5 5 4 3 2 2 1 1 1 1 1 1 1 1 1 1 1 1 1 1 1 2 3 4 4 3 4 5 4 3
5 5 5 6 7 7 7 7 7 6 5 5 5 4 4 3 3 2 2 1 1 1 2 2 1 1 1 0 0 0 1 2 2 2 4 5 5 4 4 4 3 2 2
5 5 5 6 7 7 7 7 6 5 5 5 4 4 3 3 2 2 2 1 1 1 2 2 2 2 1 1 1 1 1 1 2 4 3 3 2 2 2 2 2 2 2
5 5 5 6 7 7 7 7 6 5 4 4 4 3 2 2 2 1 2 2 1 1 1 1 0 0 0 2 2 3 4 5 5 5 3 2 2 2 2 2 2 1 1
Wind_Direction
207 208 216 283 217 338 302 222 243 244 205 207 202 211 226 238 239 246 243 232 228 222 218 220 213 209 212 213 211 210 217 211 194 197 224 240 242 239 231 232 227 222 220
200 190 193 193 59 309 306 292 259 233 209 222 220 224 240 245 246 248 251 245 232 227 222 220 217 212 211 212 213 207 217 212 203 211 208 230 231 234 244 233 233 236 225
202 196 204 213 273 314 288 280 295 253 223 224 212 242 270 267 259 251 251 254 246 235 230 225 223 218 214 214 215 210 214 216 213 216 216 219 230 238 223 236 234 233 237
203 194 203 223 264 282 286 295 294 268 233 214 221 224 233 254 262 262 259 258 248 239 239 234 228 222 222 221 221 219 224 216 213 217 231 245 249 228 228 224 234 238 240
208 203 209 215 267 286 288 302 292 280 262 237 248 247 254 264 269 268 264 265 256 243 240 242 237 230 229 228 225 222 224 224 219 213 215 226 234 244 244 247 241 239 240
213 222 228 228 302 287 285 307 289 283 290 261 257 260 266 272 270 267 266 266 264 250 243 243 242 238 235 231 230 227 226 226 224 220 215 215 214 219 229 242 242 249 248
217 224 238 273 290 293 288 293 284 288 303 290 271 265 265 266 262 262 261 262 260 257 248 246 244 241 240 238 232 230 232 228 224 222 223 224 226 228 228 234 246 256 261
224 225 237 249 270 284 287 279 275 288 292 284 275 267 267 265 263 262 261 262 261 260 260 252 249 246 243 240 237 232 233 231 226 225 224 227 227 223 224 230 235 252 258
251 251 261 264 270 277 277 276 276 284 286 281 278 273 265 265 267 266 263 265 267 267 263 258 253 249 245 241 239 237 233 230 224 223 223 225 227 225 226 226 223 233 254
319 289 280 276 276 279 278 281 278 276 280 279 274 276 273 266 267 268 264 265 267 267 265 262 258 254 248 243 241 242 238 228 225 223 221 224 224 224 223 224 228 232 242
325 319 309 296 280 275 282 292 295 293 283 276 274 275 275 272 267 263 265 267 264 260 258 261 258 254 248 242 239 238 238 231 226 225 224 223 219 218 217 220 226 231 234
315 320 322 315 300 286 295 301 297 299 294 283 276 275 275 273 270 268 266 265 265 262 259 257 257 255 250 245 240 240 240 233 229 225 225 222 216 216 213 214 222 229 234
320 320 321 314 309 304 299 296 296 299 299 292 283 279 277 275 272 272 271 268 266 265 263 259 257 255 251 248 245 243 241 237 231 225 223 223 218 215 213 213 217 223 228
318 319 318 315 313 307 300 300 304 303 300 299 291 283 280 275 273 273 273 270 266 266 266 267 262 257 251 247 245 243 241 238 234 229 225 224 222 218 212 212 213 214 218
317 318 317 315 311 306 305 306 307 306 304 301 295 287 283 278 274 273 272 272 268 265 264 264 267 264 256 248 247 240 234 231 230 227 226 227 225 227 216 214 212 208 211
306 309 312 312 311 308 307 307 305 306 303 298 294 293 288 284 280 279 276 272 268 266 264 262 264 269 266 264 252 240 230 225 223 224 224 224 218 218 213 211 211 210 210
299 304 306 305 307 306 306 304 302 302 297 293 292 292 290 286 283 281 276 272 268 267 266 268 270 271 275 277 247 235 232 224 220 220 216 219 214 212 215 207 208 211 214
295 300 304 307 308 308 307 304 302 297 291 289 291 294 290 285 281 278 274 274 272 267 264 266 267 268 267 275 258 231 226 222 216 214 212 210 211 209 208 207 212 219 226
287 292 298 302 304 304 305 303 302 299 293 290 291 290 287 283 281 276 276 274 273 271 265 262 262 261 264 269 267 227 213 215 216 214 209 206 208 195 189 198 202 203 212
290 296 302 304 304 306 306 301 299 298 293 292 292 290 286 278 276 273 270 269 266 268 273 270 261 259 262 254 240 195 198 197 205 205 205 197 193 188 183 191 193 194 193
292 298 299 299 302 306 303 298 298 298 295 295 296 293 289 283 278 275 270 267 268 273 277 278 275 267 260 237 198 191 198 183 183 189 201 191 173 178 176 184 193 186 166
292 296 297 299 304 306 302 299 300 303 303 298 298 296 294 291 284 279 280 280 272 260 274 286 299 298 272 253 216 158 187 168 181 188 185 169 162 168 156 153 141 133 130
289 293 294 300 306 307 302 297 303 309 308 303 300 300 297 293 292 283 274 265 256 240 240 250 257 286 325 357 40 78 132 126 147 143 138 136 137 134 129 125 120 119 120
287 292 295 299 305 309 304 298 305 309 304 303 308 308 305 308 308 296 281 256 233 228 233 239 244 254 277 315 50 67 118 118 111 113 115 111 106 104 103 105 102 104 119
286 287 288 293 300 307 307 307 308 306 301 304 308 311 313 308 306 309 306 271 249 242 243 244 235 220 226 233 77 108 116 115 122 111 102 94 96 105 98 84 78 83 103
286 289 290 294 300 305 306 308 307 302 299 306 308 307 308 306 307 317 340 12 15 15 342 351 321 278 62 97 102 94 99 103 118 118 123 124 128 127 121 112 92 84 89
Height
1506 1507 1507 1508 1509 1509 1510 1510 1511 1512 1513 1513 1514 1515 1516 1516 1517 1517 1518 1518 1519 1519 1520 1520 1521 1522 1522 1523 1524 1525 1525 1525 1526 1527 1527 1527 1527 1527 1527 1528 1528 1528 1528
1504 1504 1505 1505 1506 1506 1507 1508 1508 1509 1509 1510 1511 1512 1512 1513 1513 1514 1514 1515 1515 1516 1516 1517 1517 1518 1519 1519 1520 1520 1521 1521 1522 1523 1524 1525 1525 1523 1524 1524 1524 1524 1524
1500 1501 1502 1503 1503 1504 1504 1505 1505 1506 1506 1507 1508 1508 1509 1509 1510 1510 1510 1511 1511 1512 1512 1513 1513 1514 1514 1514 1515 1516 1517 1517 1518 1519 1521 1521 1521 1521 1520 1520 1520 1520 1521
1497 1498 1499 1500 1500 1501 1501 1502 1502 1503 1503 1504 1504 1505 1505 1505 1505 1506 1506 1506 1507 1507 1508 1508 1509 1509 1509 1510 1511 1511 1512 1513 1513 1514 1515 1516 1516 1517 1517 1517 1516 1516 1516
1495 1496 1496 1497 1498 1498 1499 1499 1499 1500 1500 1501 1501 1502 1502 1502 1502 1502 1501 1501 1502 1502 1503 1503 1504 1504 1504 1505 1506 1506 1507 1508 1508 1508 1509 1510 1511 1512 1513 1512 1512 1512 1513
1493 1494 1494 1494 1495 1495 1495 1496 1496 1496 1496 1497 1498 1498 1497 1497 1497 1497 1497 1497 1497 1497 1497 1498 1498 1499 1499 1500 1500 1501 1502 1502 1503 1503 1504 1504 1505 1506 1507 1508 1508 1508 1508
1490 1491 1491 1491 1492 1491 1492 1492 1493 1493 1493 1493 1494 1494 1493 1493 1493 1493 1492 1492 1491 1491 1492 1492 1493 1493 1494 1494 1495 1495 1496 1497 1497 1498 1499 1500 1501 1502 1503 1504 1504 1504 1503
1488 1488 1488 1488 1489 1489 1489 1489 1489 1488 1489 1489 1489 1489 1489 1489 1488 1488 1487 1487 1486 1486 1487 1487 1487 1488 1488 1489 1489 1489 1490 1491 1491 1492 1493 1495 1495 1496 1497 1498 1499 1499 1499
1485 1485 1485 1485 1485 1485 1485 1485 1484 1484 1485 1485 1485 1484 1484 1484 1483 1483 1483 1482 1482 1482 1482 1482 1482 1482 1483 1483 1484 1483 1484 1484 1485 1486 1488 1489 1490 1491 1492 1493 1494 1495 1494
1483 1483 1482 1482 1482 1482 1482 1481 1481 1481 1480 1480 1480 1479 1479 1479 1478 1478 1477 1477 1476 1477 1477 1477 1477 1477 1477 1477 1478 1478 1478 1478 1479 1480 1482 1483 1484 1485 1486 1487 1488 1489 1490
1481 1480 1480 1480 1479 1479 1478 1477 1476 1476 1476 1475 1475 1474 1473 1473 1473 1472 1471 1471 1471 1471 1471 1471 1472 1471 1472 1472 1472 1472 1472 1472 1473 1474 1475 1476 1478 1479 1480 1481 1482 1484 1484
1480 1479 1478 1477 1477 1476 1474 1473 1473 1472 1471 1470 1469 1468 1468 1468 1467 1466 1466 1466 1465 1466 1466 1465 1466 1466 1466 1466 1466 1466 1466 1467 1467 1467 1468 1470 1472 1473 1475 1475 1476 1478 1479
1479 1478 1477 1475 1474 1472 1471 1470 1469 1467 1466 1465 1463 1463 1462 1462 1461 1461 1460 1460 1460 1460 1459 1459 1460 1460 1460 1460 1460 1459 1460 1460 1461 1462 1463 1464 1466 1467 1468 1469 1471 1472 1473
1478 1476 1475 1472 1471 1470 1468 1466 1464 1463 1461 1459 1458 1457 1457 1456 1455 1455 1455 1454 1454 1453 1453 1453 1453 1453 1454 1453 1453 1453 1453 1454 1455 1456 1457 1458 1459 1461 1463 1464 1465 1466 1467
1476 1474 1472 1470 1468 1466 1464 1462 1460 1458 1457 1455 1454 1452 1451 1451 1450 1449 1449 1448 1448 1448 1447 1448 1447 1447 1447 1447 1447 1447 1447 1448 1449 1450 1451 1453 1454 1455 1457 1458 1459 1461 1461
1474 1472 1470 1467 1464 1462 1460 1458 1456 1454 1452 1451 1449 1448 1447 1446 1445 1444 1443 1443 1442 1442 1442 1442 1442 1441 1441 1441 1441 1442 1442 1442 1443 1445 1446 1447 1449 1450 1451 1453 1454 1455 1456
1471 1469 1466 1464 1462 1459 1457 1455 1453 1450 1449 1447 1446 1444 1443 1441 1440 1439 1438 1438 1437 1437 1437 1437 1436 1436 1436 1436 1436 1436 1437 1438 1439 1440 1441 1442 1443 1445 1446 1447 1449 1450 1451
1468 1466 1464 1461 1459 1456 1454 1451 1449 1447 1445 1443 1442 1440 1439 1437 1436 1435 1434 1433 1433 1433 1432 1432 1432 1431 1431 1431 1431 1432 1433 1434 1435 1436 1436 1437 1438 1440 1441 1442 1443 1444 1446
1466 1464 1462 1459 1456 1454 1451 1449 1446 1444 1442 1440 1438 1436 1435 1434 1432 1431 1430 1429 1429 1429 1428 1428 1428 1427 1427 1428 1428 1428 1429 1430 1431 1432 1432 1433 1434 1436 1437 1438 1438 1439 1440
1463 1461 1458 1456 1453 1451 1449 1446 1443 1441 1439 1437 1434 1433 1431 1430 1429 1427 1426 1426 1425 1425 1425 1424 1424 1424 1424 1425 1425 1425 1426 1426 1427 1428 1429 1430 1431 1432 1433 1434 1435 1435 1436
1460 1458 1455 1453 1450 1448 1446 1443 1441 1438 1436 1434 1431 1430 1428 1427 1425 1424 1423 1422 1422 1422 1422 1421 1421 1421 1422 1422 1423 1423 1423 1423 1424 1425 1426 1427 1428 1429 1430 1431 1432 1432 1433
1457 1455 1452 1450 1448 1445 1443 1440 1437 1435 1433 1430 1428 1427 1425 1424 1422 1421 1420 1419 1419 1418 1418 1418 1418 1419 1420 1421 1421 1421 1421 1422 1422 1422 1424 1424 1426 1427 1427 1428 1428 1429 1429
1454 1452 1450 1447 1445 1442 1440 1437 1435 1432 1430 1428 1426 1424 1423 1421 1420 1418 1417 1417 1416 1416 1416 1416 1416 1417 1417 1418 1418 1419 1419 1420 1420 1421 1422 1423 1424 1424 1425 1425 1425 1426 1426
1451 1449 1447 1445 1442 1440 1438 1435 1433 1430 1428 1426 1424 1422 1420 1418 1417 1417 1415 1414 1414 1414 1414 1414 1414 1415 1415 1415 1416 1416 1417 1417 1418 1419 1420 1421 1422 1422 1423 1423 1423 1424 1424
1448 1446 1444 1442 1440 1437 1435 1433 1430 1428 1426 1423 1421 1420 1418 1417 1415 1414 1413 1412 1412 1412 1412 1412 1413 1413 1412 1413 1414 1414 1415 1415 1416 1417 1417 1418 1420 1420 1420 1421 1421 1422 1422
1445 1443 1441 1439 1437 1434 1432 1430 1428 1426 1424 1421 1420 1418 1416 1415 1413 1412 1411 1410 1410 1410 1411 1411 1412 1412 1412 1412 1412 1413 1414 1414 1415 1415 1416 1417 1418 1419 1419 1419 1419 1420 1420